TimeMDT,TemperatureF,Dew PointF,Humidity,Sea Level PressureIn,VisibilityMPH,Wind Direction,Wind SpeedMPH,Gust SpeedMPH,PrecipitationIn,Events,Conditions,WindDirDegrees,DateUTC
12:53 AM,39.0,28.0,65,30.06,10.0,NE,11.5,-,N/A,,Overcast,40,2013-03-28 06:53:00
1:53 AM,35.1,27.0,72,30.05,10.0,ENE,6.9,-,N/A,,Clear,60,2013-03-28 07:53:00
2:53 AM,35.1,27.0,72,30.04,10.0,NE,8.1,-,N/A,,Mostly Cloudy,40,2013-03-28 08:53:00
3:53 AM,33.1,27.0,78,30.04,10.0,NNE,9.2,-,N/A,,Overcast,30,2013-03-28 09:53:00
4:53 AM,30.0,26.1,85,30.04,10.0,NNE,9.2,-,N/A,,Clear,30,2013-03-28 10:53:00
5:53 AM,30.0,26.1,85,30.06,9.0,NNE,9.2,-,N/A,,Clear,30,2013-03-28 11:53:00
6:53 AM,28.9,26.1,89,30.08,5.0,NE,5.8,-,N/A,,Clear,40,2013-03-28 12:53:00
7:53 AM,30.9,27.0,85,30.11,6.0,North,8.1,-,N/A,,Clear,10,2013-03-28 13:53:00
8:53 AM,36.0,28.0,73,30.12,10.0,NNE,6.9,-,N/A,,Clear,20,2013-03-28 14:53:00
9:53 AM,42.1,28.0,58,30.12,10.0,Variable,3.5,-,N/A,,Clear,0,2013-03-28 15:53:00
10:53 AM,46.9,28.9,50,30.12,10.0,Variable,3.5,-,N/A,,Partly Cloudy,0,2013-03-28 16:53:00
11:53 AM,51.1,28.0,41,30.11,10.0,Calm,Calm,-,N/A,,Clear,0,2013-03-28 17:53:00
12:53 PM,53.1,28.9,40,30.10,10.0,ESE,3.5,-,N/A,,Clear,110,2013-03-28 18:53:00
1:53 PM,55.9,30.9,39,30.08,10.0,Variable,4.6,-,N/A,,Clear,0,2013-03-28 19:53:00
2:53 PM,59.0,28.9,32,30.06,10.0,Calm,Calm,-,N/A,,Clear,0,2013-03-28 20:53:00
3:53 PM,62.1,27.0,26,30.04,10.0,Calm,Calm,-,N/A,,Clear,0,2013-03-28 21:53:00
4:53 PM,62.1,25.0,24,30.04,10.0,Variable,4.6,-,N/A,,Clear,0,2013-03-28 22:53:00
5:53 PM,62.1,28.0,28,30.04,10.0,NE,10.4,-,N/A,,Clear,50,2013-03-28 23:53:00
6:53 PM,57.9,28.9,33,30.06,10.0,ENE,10.4,-,N/A,,Clear,60,2013-03-29 00:53:00
7:53 PM,51.1,30.0,44,30.07,10.0,ENE,10.4,-,N/A,,Clear,60,2013-03-29 01:53:00
8:53 PM,46.0,30.0,54,30.09,10.0,NE,9.2,-,N/A,,Clear,40,2013-03-29 02:53:00
9:53 PM,44.1,30.9,60,30.09,10.0,NE,9.2,-,N/A,,Clear,40,2013-03-29 03:53:00
10:53 PM,44.1,32.0,63,30.06,10.0,NNE,9.2,-,N/A,,Partly Cloudy,30,2013-03-29 04:53:00
11:53 PM,43.0,32.0,65,30.05,10.0,NNE,5.8,-,N/A,,Mostly Cloudy,30,2013-03-29 05:53:00